| time (UTC) | temp C | wind direction | speed KPH | gust KPH | rain 1hr cm | rain 24hr cm | rain mn cm | humidity % | barometer mb |
| 20260505180040 | 12 | 0.0 | 0.0 | 0.15 | 1.02 | 1.02 | 94 | 1010.3 | |
| 20260505174536 | 12 | 0.0 | 0.0 | 0.20 | 0.99 | 0.99 | 93 | 1010.2 | |
| 20260505173034 | 12 | 0.0 | 0.0 | 0.33 | 0.99 | 0.99 | 93 | 1010.3 | |
| 20260505171528 | 12 | 0.0 | 0.0 | 0.25 | 0.91 | 0.91 | 92 | 1010.3 | |
| 20260505170016 | 12 | 0.0 | 0.0 | 0.23 | 0.89 | 0.89 | 92 | 1010.4 | |
| 20260505164527 | 13 | 0.0 | 0.0 | 0.13 | 0.79 | 0.79 | 90 | 1010.4 | |
| 20260505163010 | 13 | 0.0 | 0.0 | 0.00 | 0.66 | 0.66 | 89 | 1010.5 | |
| 20260505161506 | 13 | 0.0 | 0.0 | 0.00 | 0.66 | 0.66 | 88 | 1010.3 | |
| 20260505153106 | 13 | 0.0 | 0.0 | 0.00 | 0.66 | 0.66 | 86 | 1010.4 | |
| 20260505151548 | 13 | 0.0 | 0.0 | 0.00 | 0.66 | 0.66 | 86 | 1010.3 | |
| 20260505124514 | 13 | 0.0 | 0.0 | 0.00 | 0.66 | 0.66 | 89 | 1010.9 | |
| 20260505123011 | 13 | 0.0 | 0.0 | 0.00 | 0.66 | 0.66 | 90 | 1011.1 | |
| 20260505121512 | 13 | 0.0 | 0.0 | 0.00 | 0.66 | 0.66 | 90 | 1011.2 | |
| 20260505120010 | 12 | 0.0 | 0.0 | 0.00 | 0.66 | 0.66 | 90 | 1011.1 | |
| 20260505114509 | 12 | 0.0 | 0.0 | 0.00 | 0.66 | 0.66 | 91 | 1011.1 | |
| 20260505113009 | 12 | 0.0 | 0.0 | 0.00 | 0.66 | 0.66 | 90 | 1011.2 | |
| 20260505111514 | 12 | 0.0 | 0.0 | 0.00 | 0.66 | 0.66 | 91 | 1011.4 | |
| 20260505101549 | 12 | 0.0 | 0.0 | 0.03 | 0.66 | 0.66 | 90 | 1011.7 | |
| 20260505100045 | 13 | 0.0 | 0.0 | 0.03 | 0.66 | 0.66 | 90 | 1011.5 | |
| 20260505094548 | 13 | 0.0 | 0.0 | 0.03 | 0.66 | 0.66 | 90 | 1011.5 | |
| 20260505093046 | 13 | 0.0 | 0.0 | 0.03 | 0.66 | 0.66 | 90 | 1011.5 | |
| 20260505091545 | 13 | 0.0 | 0.0 | 0.00 | 0.64 | 0.64 | 89 | 1011.5 | |
| 20260505090049 | 12 | 0.0 | 0.0 | 0.00 | 0.64 | 0.64 | 88 | 1011.5 | |
| 20260505084536 | 13 | 0.0 | 0.0 | 0.00 | 0.64 | 0.64 | 88 | 1011.3 | |
| 20260505083032 | 12 | 0.0 | 0.0 | 0.00 | 0.64 | 0.64 | 88 | 1011.3 | |
| 20260505081536 | 12 | 0.0 | 0.0 | 0.00 | 0.64 | 0.64 | 90 | 1011.0 | |
| 20260505080044 | 12 | 0.0 | 0.0 | 0.03 | 0.64 | 0.64 | 91 | 1010.9 | |
| 20260505074519 | 11 | 0.0 | 0.0 | 0.03 | 0.64 | 0.64 | 92 | 1011.1 | |
| 20260505073017 | 11 | 0.0 | 0.0 | 0.03 | 0.64 | 0.64 | 93 | 1011.0 | |
| 20260505071510 | 11 | 0.0 | 0.0 | 0.05 | 0.64 | 0.64 | 93 | 1011.1 | |
| 20260505070005 | 11 | 0.0 | 0.0 | 0.05 | 0.61 | 0.61 | 93 | 1011.2 | |
| 20260505064501 | 11 | 0.0 | 0.0 | 0.13 | 0.61 | 0.61 | 93 | 1011.3 | |
| 20260505063101 | 11 | 0.0 | 0.0 | 0.20 | 0.61 | 0.61 | 92 | 1011.5 | |
| 20260505061600 | 11 | 0.0 | 0.0 | 0.28 | 0.61 | 0.61 | 92 | 1011.4 | |
| 20260505060048 | 11 | 0.0 | 0.0 | 0.33 | 0.58 | 0.58 | 92 | 1011.5 | |
| 20260505054545 | 11 | 0.0 | 0.0 | 0.33 | 0.51 | 0.51 | 91 | 1011.5 | |
| 20260505053039 | 11 | 0.0 | 0.0 | 0.25 | 0.43 | 0.43 | 91 | 1011.4 | |
| 20260505051538 | 11 | 315 | 4.8 | 11.3 | 0.18 | 0.33 | 0.33 | 90 | 1011.4 |
| 20260505050113 | 11 | 338 | 6.4 | 17.7 | 0.15 | 0.23 | 0.23 | 90 | 1011.3 |
| 20260505041547 | 11 | 344 | 9.7 | 16.1 | 0.10 | 0.15 | 0.15 | 89 | 1011.2 |
| 20260505040028 | 11 | 318 | 3.2 | 11.3 | 0.05 | 0.10 | 0.10 | 87 | 1011.2 |
| 20260505034525 | 11 | 311 | 4.8 | 12.9 | 0.05 | 0.08 | 0.08 | 86 | 1011.3 |
| 20260505033023 | 12 | 291 | 6.4 | 9.7 | 0.03 | 0.05 | 0.05 | 83 | 1011.3 |
| 20260505031520 | 12 | 243 | 4.8 | 11.3 | 0.03 | 0.05 | 0.05 | 81 | 1011.3 |
| 20260505030017 | 12 | 262 | 6.4 | 16.1 | 0.03 | 0.05 | 0.05 | 78 | 1011.3 |
| 20260505024517 | 12 | 305 | 9.7 | 17.7 | 0.03 | 0.05 | 0.05 | 76 | 1011.5 |
| 20260505021510 | 12 | 292 | 6.4 | 17.7 | 0.00 | 0.03 | 0.03 | 76 | 1011.8 |
| 20260505020009 | 12 | 295 | 4.8 | 16.1 | 0.03 | 0.03 | 0.03 | 76 | 1012.1 |
| 20260505014505 | 12 | 319 | 6.4 | 16.1 | 0.03 | 0.03 | 0.03 | 77 | 1012.2 |
| 20260505013103 | 12 | 290 | 3.2 | 11.3 | 0.03 | 0.03 | 0.03 | 77 | 1012.4 |
| 20260505011605 | 13 | 278 | 6.4 | 12.9 | 0.03 | 0.03 | 0.03 | 74 | 1012.7 |
| 20260505010055 | 13 | 261 | 3.2 | 8.0 | 0.00 | 0.00 | 0.00 | 70 | 1012.9 |
| 20260505004549 | 14 | 329 | 4.8 | 11.3 | 0.00 | 0.00 | 0.00 | 67 | 1013.2 |
| 20260505003045 | 14 | 313 | 4.8 | 11.3 | 0.00 | 0.00 | 0.00 | 64 | 1013.3 |
| 20260505001558 | 14 | 322 | 4.8 | 12.9 | 0.00 | 0.00 | 0.00 | 62 | 1013.4 |
| 20260505000051 | 15 | 259 | 4.8 | 11.3 | 0.00 | 0.00 | 0.00 | 59 | 1013.6 |
| 20260504234553 | 15 | 281 | 4.8 | 11.3 | 0.00 | 0.00 | 0.00 | 58 | 1013.7 |
| 20260504233039 | 15 | 268 | 6.4 | 12.9 | 0.00 | 0.00 | 0.00 | 57 | 1013.9 |
| 20260504231536 | 15 | 319 | 6.4 | 16.1 | 0.00 | 0.00 | 0.00 | 57 | 1014.0 |
| 20260504230033 | 15 | 312 | 4.8 | 20.9 | 0.00 | 0.00 | 0.00 | 58 | 1014.2 |
| 20260504224531 | 15 | 273 | 14.5 | 27.4 | 0.00 | 0.00 | 0.00 | 59 | 1014.3 |
| 20260504223029 | 15 | 341 | 9.7 | 24.1 | 0.00 | 0.00 | 0.00 | 58 | 1014.2 |
| 20260504221529 | 15 | 323 | 11.3 | 32.2 | 0.00 | 0.00 | 0.00 | 57 | 1014.2 |
| 20260504220025 | 15 | 298 | 11.3 | 25.7 | 0.00 | 0.00 | 0.00 | 57 | 1014.4 |
| 20260504214523 | 15 | 327 | 9.7 | 22.5 | 0.00 | 0.00 | 0.00 | 58 | 1014.6 |
| 20260504213043 | 15 | 348 | 14.5 | 24.1 | 0.00 | 0.00 | 0.00 | 58 | 1015.0 |
| 20260504211523 | 15 | 345 | 12.9 | 29.0 | 0.00 | 0.00 | 0.00 | 59 | 1015.1 |
| 20260504210021 | 15 | 269 | 12.9 | 27.4 | 0.00 | 0.00 | 0.00 | 58 | 1015.2 |
| 20260504204520 | 15 | 336 | 9.7 | 25.7 | 0.00 | 0.00 | 0.00 | 58 | 1015.3 |
| 20260504203019 | 15 | 355 | 11.3 | 29.0 | 0.00 | 0.00 | 0.00 | 58 | 1015.2 |
| 20260504201524 | 15 | 326 | 12.9 | 25.7 | 0.00 | 0.00 | 0.00 | 56 | 1015.2 |
| 20260504200019 | 16 | 330 | 11.3 | 22.5 | 0.00 | 0.00 | 0.00 | 55 | 1015.1 |
| 20260504194519 | 16 | 318 | 11.3 | 20.9 | 0.00 | 0.00 | 0.00 | 53 | 1015.2 |
| 20260504193016 | 16 | 290 | 11.3 | 22.5 | 0.00 | 0.00 | 0.00 | 53 | 1015.2 |
| 20260504191518 | 16 | 288 | 12.9 | 25.7 | 0.00 | 0.00 | 0.00 | 54 | 1014.9 |
| 20260504190015 | 16 | 343 | 16.1 | 25.7 | 0.00 | 0.00 | 0.00 | 56 | 1014.7 |
| 20260504184515 | 15 | 317 | 3.2 | 8.0 | 0.00 | 0.00 | 0.00 | 70 | 1014.6 |
| 20260504183020 | 16 | 312 | 3.2 | 6.4 | 0.00 | 0.00 | 0.00 | 71 | 1014.3 |
| 20260504181513 | 16 | 360 | 0.0 | 0.0 | 0.00 | 0.00 | 0.00 | 72 | 1014.3 |